This is the latest recevied weather packets stored in our database for station/object DL1SEW-6. If no packets are shown the sender has not sent any weather packets the latest 10 day(s).
| Time | Temp. | Humidity | Pressure | Rain* | Wind** | Luminosity | Snow |
|---|---|---|---|---|---|---|---|
| 1777667097 | 15° C | 41% | 1023.6 hPa | 0 mm | - | 0 W/m² | - |
| 1777666199 | 15.56° C | 39% | 1023.6 hPa | 0 mm | - | 0 W/m² | - |
| 1777665298 | 15.56° C | 39% | 1023.4 hPa | 0 mm | - | 0 W/m² | - |
| 1777664397 | 15.56° C | 38% | 1023.3 hPa | 0 mm | - | 0 W/m² | - |
| 1777663497 | 16.67° C | 39% | 1023.1 hPa | 0 mm | - | 0 W/m² | - |
| 1777662599 | 17.22° C | 36% | 1023 hPa | 0 mm | - | 0 W/m² | - |
| 1777661697 | 17.78° C | 33% | 1022.9 hPa | 0 mm | - | 0 W/m² | - |
| 1777660796 | 18.89° C | 33% | 1022.9 hPa | 0 mm | - | 5 W/m² | - |
| 1777659897 | 19.44° C | 30% | 1022.9 hPa | 0 mm | - | 10 W/m² | - |
| 1777658997 | 20° C | 30% | 1022.7 hPa | 0 mm | - | 15 W/m² | - |
| 1777658096 | 20° C | 29% | 1022.6 hPa | 0 mm | - | 19 W/m² | - |
| 1777657195 | 20.56° C | 28% | 1022.3 hPa | 0 mm | - | 25 W/m² | - |
| 1777656300 | 20.56° C | 27% | 1022.3 hPa | 0 mm | - | 30 W/m² | - |
| 1777655400 | 21.11° C | 27% | 1022.3 hPa | 0 mm | - | 44 W/m² | - |
| 1777654500 | 21.67° C | 26% | 1022.3 hPa | 0 mm | - | 245 W/m² | - |
| 1777653602 | 21.67° C | 25% | 1022.5 hPa | 0 mm | - | 294 W/m² | - |
| 1777652700 | 22.22° C | 25% | 1022.7 hPa | 0 mm | - | 355 W/m² | - |
| 1777651799 | 22.22° C | 24% | 1022.7 hPa | 0 mm | - | 406 W/m² | - |
| 1777650899 | 22.22° C | 24% | 1022.9 hPa | 0 mm | - | 452 W/m² | - |
| 1777649999 | 22.78° C | 24% | 1023 hPa | 0 mm | - | 495 W/m² | - |
| 1777649101 | 22.78° C | 26% | 1023.3 hPa | 0 mm | - | 537 W/m² | - |
| 1777648199 | 22.22° C | 23% | 1023.3 hPa | 0 mm | - | 579 W/m² | - |
| 1777647299 | 22.78° C | 23% | 1023.4 hPa | 0 mm | - | 620 W/m² | - |
| 1777646399 | 22.78° C | 23% | 1023.7 hPa | 0 mm | - | 658 W/m² | - |
| 1777645500 | 22.78° C | 22% | 1023.9 hPa | 0 mm | - | 697 W/m² | - |
* Rain latest hour (hover to see other rain measurements)
** Current wind speed in m/s (hover to see current wind gust speed)